When you browse on this site, cookies collect data to enhance your experience and personalize the content and advertising you see.
Visit our Privacy Policy to learn more. By continuing to use the site, you agree to this use of cookies and data.
  • In United Kingdom
  • List of Countries
  • For 7 days
  • Water Temperature
  • Satellite Maps
  • Weather Map
  • Weather Widgets
  • user-avatar
    Login

    Hourly Weather Grand Sess

    Today, 24 April, Wednesday

    Time Temperature Precipitation Wind Pressure Humidity
    00:00 +28°C° 0.4 mm 2 mps 756 mmHg 91%
    01:00 +28°C° 0.4 mm 2 mps 756 mmHg 91%
    02:00 +28°C° 0.4 mm 2 mps 755 mmHg 92%
    03:00 +28°C° 0.1 mm 2 mps 755 mmHg 92%
    04:00 +28°C° 0.1 mm 2 mps 755 mmHg 92%
    05:00 +28°C° 0 mm 3 mps 756 mmHg 93%
    06:00 +29°C° 0.3 mm 3 mps 756 mmHg 89%
    07:00 +29°C° 0.3 mm 3 mps 756 mmHg 86%
    08:00 +30°C° 0.3 mm 3 mps 757 mmHg 83%
    09:00 +31°C° 0.5 mm 3 mps 757 mmHg 81%
    10:00 +31°C° 0.5 mm 3 mps 757 mmHg 80%
    11:00 +31°C° 0.5 mm 3 mps 757 mmHg 78%
    12:00 +31°C° 0.9 mm 3 mps 756 mmHg 79%
    13:00 +31°C° 0.9 mm 3 mps 756 mmHg 80%
    14:00 +31°C° 0.9 mm 3 mps 756 mmHg 80%
    15:00 +30°C° 2.2 mm 3 mps 756 mmHg 83%
    16:00 +29°C° 2.2 mm 3 mps 756 mmHg 87%
    17:00 +29°C° 2.2 mm 2 mps 756 mmHg 90%
    18:00 +28°C° 1.6 mm 2 mps 757 mmHg 90%
    19:00 +28°C° 1.6 mm 2 mps 757 mmHg 90%
    20:00 +28°C° 1.6 mm 2 mps 758 mmHg 90%
    21:00 +28°C° 0.1 mm 1 mps 758 mmHg 90%
    22:00 +28°C° 0.1 mm 1 mps 758 mmHg 90%
    23:00 +28°C° 0.1 mm 1 mps 758 mmHg 90%

    Tomorrow, 25 April, Thursday

    Time Temperature Precipitation Wind Pressure Humidity
    00:00 +28°C° 0 mm 1 mps 757 mmHg 90%
    01:00 +25°C° 0 mm 0 mps 757 mmHg 91%
    02:00 +25°C° 0 mm 0 mps 757 mmHg 91%
    03:00 +25°C° 0 mm 0 mps 757 mmHg 92%
    04:00 +25°C° 0 mm 0 mps 757 mmHg 92%
    05:00 +25°C° 0 mm 0 mps 756 mmHg 93%
    06:00 +26°C° 0 mm 0 mps 757 mmHg 88%
    07:00 +30°C° 0 mm 1 mps 757 mmHg 84%
    08:00 +31°C° 0 mm 1 mps 758 mmHg 79%
    09:00 +32°C° 0.2 mm 1 mps 758 mmHg 75%
    10:00 +34°C° 0.2 mm 2 mps 758 mmHg 70%
    11:00 +35°C° 0.2 mm 2 mps 758 mmHg 65%
    12:00 +34°C° 1.2 mm 2 mps 757 mmHg 68%
    13:00 +34°C° 1.2 mm 3 mps 756 mmHg 72%
    14:00 +33°C° 1.2 mm 3 mps 756 mmHg 75%
    15:00 +31°C° 0.4 mm 3 mps 756 mmHg 78%
    16:00 +31°C° 0.4 mm 2 mps 756 mmHg 81%
    17:00 +30°C° 0.4 mm 2 mps 756 mmHg 84%
    18:00 +29°C° 0 mm 2 mps 756 mmHg 85%
    19:00 +29°C° 0 mm 2 mps 757 mmHg 87%
    20:00 +28°C° 0 mm 1 mps 757 mmHg 88%
    21:00 +28°C° 0 mm 1 mps 757 mmHg 89%
    22:00 +28°C° 0 mm 1 mps 757 mmHg 89%
    23:00 +28°C° 0 mm 1 mps 757 mmHg 90%

    Day after tomorrow, 26 April, Friday

    Time Temperature Precipitation Wind Pressure Humidity
    00:00 +28°C° 0 mm 1 mps 757 mmHg 90%
    01:00 +26°C° 0 mm 0 mps 757 mmHg 91%
    02:00 +25°C° 0 mm 0 mps 756 mmHg 91%
    03:00 +25°C° 0 mm 0 mps 756 mmHg 92%
    04:00 +25°C° 0 mm 0 mps 756 mmHg 93%
    05:00 +25°C° 0 mm 0 mps 757 mmHg 94%
    06:00 +26°C° 0 mm 0 mps 757 mmHg 88%
    07:00 +28°C° 0 mm 0 mps 757 mmHg 83%
    08:00 +29°C° 0 mm 0 mps 758 mmHg 77%
    09:00 +32°C° 0 mm 1 mps 758 mmHg 72%
    10:00 +33°C° 0 mm 1 mps 758 mmHg 66%
    11:00 +35°C° 0 mm 2 mps 758 mmHg 61%
    12:00 +35°C° 0 mm 2 mps 757 mmHg 62%
    13:00 +35°C° 0 mm 3 mps 756 mmHg 63%
    14:00 +34°C° 0 mm 3 mps 755 mmHg 65%
    15:00 +34°C° 0 mm 3 mps 755 mmHg 68%
    16:00 +33°C° 0 mm 3 mps 755 mmHg 72%
    17:00 +31°C° 0 mm 3 mps 755 mmHg 76%
    18:00 +30°C° 0 mm 3 mps 756 mmHg 79%
    19:00 +30°C° 0 mm 3 mps 756 mmHg 83%
    20:00 +29°C° 0 mm 2 mps 757 mmHg 86%
    21:00 +29°C° 0.1 mm 2 mps 757 mmHg 87%
    22:00 +29°C° 0.1 mm 2 mps 757 mmHg 88%
    23:00 +28°C° 0.1 mm 2 mps 757 mmHg 89%

    27 April, Saturday

    Time Temperature Precipitation Wind Pressure Humidity
    00:00 +28°C° 0.4 mm 2 mps 756 mmHg 90%
    01:00 +28°C° 0.4 mm 2 mps 756 mmHg 91%
    02:00 +28°C° 0.4 mm 2 mps 755 mmHg 92%
    03:00 +28°C° 0.2 mm 2 mps 755 mmHg 92%
    04:00 +27°C° 0.2 mm 2 mps 756 mmHg 92%
    05:00 +27°C° 0.2 mm 2 mps 756 mmHg 93%
    06:00 +28°C° 0.3 mm 2 mps 756 mmHg 89%
    07:00 +30°C° 0.3 mm 2 mps 757 mmHg 85%
    08:00 +31°C° 0.3 mm 2 mps 758 mmHg 81%
    09:00 +33°C° 0 mm 3 mps 757 mmHg 76%
    10:00 +34°C° 0 mm 3 mps 757 mmHg 70%
    11:00 +35°C° 0 mm 4 mps 757 mmHg 65%
    12:00 +35°C° 0.1 mm 4 mps 756 mmHg 66%
    13:00 +34°C° 0.1 mm 4 mps 756 mmHg 67%
    14:00 +34°C° 0.1 mm 5 mps 755 mmHg 68%
    15:00 +33°C° 0 mm 4 mps 755 mmHg 72%
    16:00 +32°C° 0 mm 4 mps 755 mmHg 76%
    17:00 +30°C° 0 mm 4 mps 755 mmHg 79%
    18:00 +30°C° 0 mm 3 mps 756 mmHg 82%
    19:00 +29°C° 0 mm 3 mps 756 mmHg 84%
    20:00 +29°C° 0 mm 2 mps 757 mmHg 86%
    21:00 +29°C° 0 mm 2 mps 757 mmHg 87%
    22:00 +29°C° 0 mm 2 mps 757 mmHg 88%
    23:00 +29°C° 0 mm 2 mps 757 mmHg 88%

    28 April, Sunday

    Time Temperature Precipitation Wind Pressure Humidity
    00:00 +28°C° 0 mm 2 mps 756 mmHg 89%
    01:00 +28°C° 0 mm 2 mps 755 mmHg 89%
    02:00 +28°C° 0 mm 2 mps 755 mmHg 89%
    03:00 +28°C° 0 mm 2 mps 755 mmHg 90%
    04:00 +28°C° 0 mm 2 mps 756 mmHg 90%
    05:00 +28°C° 0 mm 2 mps 756 mmHg 90%
    06:00 +29°C° 0.1 mm 3 mps 756 mmHg 86%
    07:00 +30°C° 0.1 mm 3 mps 757 mmHg 81%
    08:00 +31°C° 0.1 mm 3 mps 757 mmHg 76%
    09:00 +33°C° 0.2 mm 3 mps 757 mmHg 74%
    10:00 +33°C° 0.2 mm 4 mps 757 mmHg 72%
    11:00 +34°C° 0.2 mm 4 mps 757 mmHg 71%
    12:00 +33°C° 0.4 mm 4 mps 756 mmHg 73%
    13:00 +33°C° 0.4 mm 4 mps 755 mmHg 75%
    14:00 +33°C° 0.4 mm 4 mps 755 mmHg 77%
    15:00 +32°C° 0.2 mm 4 mps 755 mmHg 80%
    16:00 +31°C° 0.2 mm 3 mps 755 mmHg 82%
    17:00 +30°C° 0.2 mm 3 mps 755 mmHg 85%
    18:00 +30°C° 0 mm 3 mps 756 mmHg 87%
    19:00 +29°C° 0 mm 3 mps 756 mmHg 88%
    20:00 +29°C° 0 mm 2 mps 757 mmHg 90%
    21:00 +28°C° 0.1 mm 2 mps 757 mmHg 91%
    22:00 +28°C° 0.1 mm 2 mps 757 mmHg 91%
    23:00 +28°C° 0.1 mm 2 mps 757 mmHg 91%

    29 April, Monday

    Time Temperature Precipitation Wind Pressure Humidity
    00:00 +28°C° 0.1 mm 2 mps 756 mmHg 92%
    01:00 +28°C° 0.1 mm 3 mps 756 mmHg 92%
    02:00 +28°C° 0.1 mm 3 mps 755 mmHg 92%
    03:00 +28°C° 0 mm 3 mps 755 mmHg 92%
    04:00 +28°C° 0 mm 3 mps 756 mmHg 92%
    05:00 +28°C° 0 mm 2 mps 756 mmHg 92%
    06:00 +29°C° 0 mm 3 mps 757 mmHg 88%
    07:00 +30°C° 0 mm 3 mps 757 mmHg 84%
    08:00 +31°C° 0 mm 3 mps 757 mmHg 79%
    09:00 +33°C° 0 mm 3 mps 757 mmHg 74%
    10:00 +34°C° 0 mm 3 mps 757 mmHg 69%
    11:00 +35°C° 0 mm 3 mps 756 mmHg 63%
    12:00 +35°C° 0 mm 4 mps 756 mmHg 65%
    13:00 +35°C° 0 mm 4 mps 755 mmHg 66%
    14:00 +34°C° 0 mm 4 mps 755 mmHg 67%
    15:00 +33°C° 0 mm 4 mps 755 mmHg 70%
    16:00 +33°C° 0 mm 4 mps 755 mmHg 73%
    17:00 +32°C° 0 mm 4 mps 755 mmHg 76%
    18:00 +30°C° 0 mm 3 mps 756 mmHg 81%
    19:00 +29°C° 0 mm 3 mps 756 mmHg 85%
    20:00 +29°C° 0 mm 2 mps 757 mmHg 90%
    21:00 +28°C° 0 mm 2 mps 757 mmHg 91%
    22:00 +28°C° 0 mm 2 mps 757 mmHg 91%
    23:00 +28°C° 0 mm 2 mps 757 mmHg 92%
    Show more